Regional Weather Roundup
Issued by NWS Jackson, KY

Home | Current Version | Previous Version | Text Only | Print | Product List | Glossary Off
Versions: 1 2 3 4 5 6 7 8 9 10 11 12 13 14 15 16 17 18 19 20 21 22 23 24 25 26 27 28 29 30 31 32 33 34 35 36 37 38 39 40 41 42 43 44 45 46 47 48 49 50

000
ASUS43 KJKL 081410
RWRJKL

EAST KENTUCKY HOURLY WEATHER ROUNDUP
NATIONAL WEATHER SERVICE JACKSON KY
900 AM EST MON FEB 08 2016

NOTE: "FAIR" INDICATES FEW OR NO CLOUDS BELOW 12,000 FEET WITH
NO SIGNIFICANT WEATHER AND/OR OBSTRUCTIONS TO VISIBILITY.

* THESE REPORTS ARE NOT UNDER NWS QUALITY CONTROL AND MAY NOT
  REPORT WEATHER SUCH AS PRECIPITATION AND FOG.

KYZ079-080-083-085-087-088-110-112-115-119-120-081500
...EASTERN KENTUCKY...

CITY           SKY/WX    TMP DP  RH WIND       PRES   REMARKS
JACKSON        LGT SNOW  35  33  92 VRB5      29.69S FOG     WCI  31
LONDON         PTSUNNY   36  34  92 SW5       29.72S WCI  32
SOMERSET*      MOSUNNY   34  34 100 S3        29.74F FOG
MONTICELLO*    MOSUNNY   37  36  96 NE7       29.74F WCI  32
WILLIAMSBURG*  SUNNY     37  36  93 SW7       29.74S WCI  32
MIDDLESBORO*   CLOUDY    40  32  75 W6        29.75S
HARLAN APT*    CLOUDY    36  30  80 SW3       29.72R
HAZARD APT*    CLOUDY   N/A N/A N/A SW7       29.70F
BLACK MTN*       N/A     27  27 100 S1          N/A
BIG SANDY*     CLOUDY    36  35  94 SW6       29.68F WCI  31
MOREHEAD APT*  LGT SNOW  34  32  93 SW9       29.70S VSB 1   WCI  26
$$

KYZ035-036-041-042-044-050-067-078-099-081500
...CENTRAL KENTUCKY...

CITY           SKY/WX    TMP DP  RH WIND       PRES   REMARKS
MT STERLING*   CLOUDY    34  34 100 W8        29.69F WCI  27
DANVILLE*      PTSUNNY   36  34  93 SW6       29.71F WCI  31
RICHMOND*      PTSUNNY   36  34  93 S6        29.70S WCI  31
LEXINGTON      CLOUDY    34  32  92 SW8       29.69S WCI  27
FRANKFORT      PTSUNNY  N/A N/A N/A SW3       29.68F
$$

KYZ091>093-OHZ055-061-077-WVZ005-015-034-035-042-081500
...SOUTHERN OHIO/WEST VIRGINIA...

CITY           SKY/WX    TMP DP  RH WIND       PRES   REMARKS
COVINGTON      CLOUDY    36  34  93 NW9       29.65F WCI  29
COLUMBUS       LGT RAIN  36  36 100 SW5       29.62S FOG     WCI  32
DAYTON         PTSUNNY   36  33  89 NW6       29.64S WCI  31
WILMINGTON     CLOUDY    35  34  96 SW8       29.63S FOG     WCI  29
HUNTINGTON     LGT RAIN  38  34  85 SW6       29.67F WCI  33
CHARLESTON     CLOUDY    39  25  57 S7        29.66F WCI  34
PINEVILLE*       N/A     30  26  83 MISG      29.73F
BECKLEY          N/A     36  19  50 S8        29.67R WCI  30
$$

VAZ002-007-008-TNZ017-027-036-066-071-081500
...SOUTHWEST VIRGINIA/EAST TENNESSEE...

CITY           SKY/WX    TMP DP  RH WIND       PRES   REMARKS
BRISTOL        CLOUDY    31  27  85 CALM      29.73F
KNOXVILLE      PTSUNNY   42  28  57 SW10      29.78R
OAK RIDGE      PTSUNNY   40  28  62 CALM      29.78R
CROSSVILLE     SUNNY     39  28  64 S3        29.74F
NASHVILLE      MOSUNNY   42  24  49 W8G21     29.79S
$$

...KEY TO REMARKS...
VSB - VISIBILITY IN MILES
WCI - WIND CHILL INDEX
HX  - HEAT INDEX

$$




USA.gov is the U.S. government's official web portal to all federal, state and local government web resources and services.